OpenBCM V1.07b12 (Linux)

Packet Radio Mailbox

DB0FHN

[JN59NK Nuernberg]

 Login: GUEST





  
F1EBE  > KEPLER   10.02.03 20:44l 105 Lines 5486 Bytes #999 (0) @ EU
BID : 21170_F8KOH
Read: DB0FHN GUEST
Subj: 2l  Sat  Amat  040.jours
Path: DB0FHN<DB0ZWI<DB0CHZ<DB0ERF<DB0FBB<DB0GOS<ON0AR<ON0AR<IK1ZNW<RZ6HXA<
      LX0PAC<F6KWP<F6KIF<F1HCI<F6KBF<F5GVH<F8KGK<F8KAE<F8KOH
Sent: 030210/0954Z @:F8KOH.FNOR.FRA.EU #:21170 [Vernon] FBB7.00i $:21170_F8KOH
From: F1EBE@F8KOH.FNOR.FRA.EU
To  : KEPLER@EU


AO-7                    
1 07530U 74089B   03037.64089144 -.00000029  00000-0  10000-3 0  1619
2 07530 101.7635  85.5383 0012227 100.5577 259.6871 12.53564245291693
AO-10                   
1 14129U 83058B   03036.77933919  .00000095  00000-0  10000-3 0  9157
2 14129  25.9013 166.4253 6030072 325.3874   7.1450  2.05865592119804
UO-11                   
1 14781U 84021B   03040.53938806  .00001478  00000-0  21233-3 0   664
2 14781  98.1162  14.3938 0008253 237.5248 122.5163 14.77965790 14906
UO-14                   
1 20437U 90005B   03039.71132723  .00000140  00000-0  68545-4 0  1608
2 20437  98.2741  83.7951 0009835 230.3380 129.6937 14.31234328681087
AO-16                   
1 20439U 90005D   03038.19007743  .00000189  00000-0  86815-4 0  8480
2 20439  98.3192  93.9638 0010150 241.8069 118.2090 14.31467216680906
DO-17                   
1 20440U 90005E   03037.69200758  .00000210  00000-0  94166-4 0  7254
2 20440  98.3375  97.3502 0010242 242.5884 117.4255 14.31744553680900
WO-18                   
1 20441U 90005F   03039.56942018  .00000155  00000-0  74067-4 0    74
2 20441  98.3376  98.3740 0010845 236.8797 123.1347 14.31549203681154
LO-19                   
1 20442U 90005G   03040.24784930  .00000165  00000-0  77679-4 0  9598
2 20442  98.3480 102.0301 0011065 235.0516 124.9625 14.31712481681307
FO-20                   
1 20480U 90013C   03039.95711336 -.00000023  00000-0  19522-4 0  4610
2 20480  99.0443   4.5076 0540812  25.6387 337.0501 12.83329359609287
RS-12/13                
1 21089U 91007A   03037.89272127  .00000056  00000-0  43497-4 0  4984
2 21089  82.9219 190.0358 0028680 321.8346  38.0779 13.74402792602180
UO-22                   
1 21575U 91050B   03040.53896410  .00000318  00000-0  11580-3 0  7211
2 21575  98.1400  33.1162 0007658 152.9541 207.2048 14.39147058606987
KO-23                   
1 22077U 92052B   03040.23840020 -.00000037  00000-0  10000-3 0  1539
2 22077  66.0868 145.2674 0015448 276.7072  83.2191 12.86408059493100
AO-27                   
1 22825U 93061C   03039.52930673  .00000143  00000-0  72692-4 0  4812
2 22825  98.2756  69.7373 0007688 293.4369  66.6008 14.28939123488444
IO-26                   
1 22826U 93061D   03040.12123788  .00000155  00000-0  77286-4 0  3043
2 22826  98.2760  71.4095 0008355 291.5612  68.4677 14.29162027488571
KO-25                   
1 22828U 93061F   03040.10381663  .00000129  00000-0  66442-4 0  4214
2 22828  98.2731  71.6578 0009153 268.0778  91.9352 14.29504602456775
POSAT                   
1 22829U 93061G   03039.55486860  .00000247  00000-0  11213-3 0  4459
2 22829  98.2722  71.7351 0008927 268.6020  91.4135 14.29763103488626
RS-15                   
1 23439U 94085A   03038.20708573 -.00000034  00000-0  24732-3 0  6809
2 23439  64.8156  59.8551 0147092 117.4218 244.1751 11.27547676334317
FO-29                   
1 24278U 96046B   03037.93016765  .00000017  00000-0  56369-4 0  5636
2 24278  98.5342 190.7300 0349883 246.6829 109.7133 13.52870871319737
TO-31                   
1 25396U 98043C   03039.90628136 -.00000043  00000-0  00000+0 0  8210
2 25396  98.6277 117.1987 0003322 147.1878 212.9508 14.23508183238157
GO-32                   
1 25397U 98043D   03037.95549562  .00000098  00000-0  62904-4 0  1105
2 25397  98.6223 114.1855 0001700 149.8842 210.2435 14.22957042237844
SO-33                   
1 25509U 98061B   03039.51034906  .00000747  00000-0  13589-3 0  7746
2 25509  31.4275 209.9830 0357914 215.1068 142.5488 14.27415513223875
PO-34                   
1 25520U 98064B   03039.80240170  .00002834  00000-0  14248-3 0  6365
2 25520  28.4596 288.9042 0006109 243.0057 116.9936 15.13828821236106
ISS             
1 25544U 98067A   03040.46405093  .00026270  00000-0  31701-3 0  6694
2 25544  51.6371 301.7050 0005462 128.9350 221.1436 15.60553619241070
UO-36                   
1 25693U 99021A   03040.47343092  .00000502  00000-0  91684-4 0  6913
2 25693  64.5596  38.6229 0019393 315.9384  44.0173 14.76376722204910
OO-38                   
1 26063U 00004C   03037.70608802  .00000172  00000-0  79734-4 0  7155
2 26063 100.2146  90.1333 0037196 320.7642  39.0842 14.35476126158685
SO-41                   
1 26545U 00057A   03037.84780355  .00001083  00000-0  16240-3 0  4091
2 26545  64.5579  67.9471 0052998 240.6418 118.9390 14.78947372127498
MO-46                   
1 26548U 00057D   03037.55083429  .00001630  00000-0  22358-3 0  4141
2 26548  64.5573  61.8823 0046213 239.8155 119.8371 14.81226413127590
SO-42                   
1 26549U 00057E   03037.53712499  .00001128  00000-0  17195-3 0  6851
2 26549  64.5538  72.9544 0057261 241.0172 118.5186 14.77885754127363
AO-40                   
1 26609U 00072B   03035.10689355 -.00000169  00000-0  10000-3 0  3108
2 26609   8.0513  66.8265 7939440 140.0872 318.9916  1.25596472 10406
PCsat                  
1 26931U 01043C   03037.97778918  .00000187  00000-0  10626-3 0  3985
2 26931  67.0481 285.4554 0005009 262.2884  97.7648 14.29108739 70695
NO-45                   
1 26932U 01043D   03037.95728841  .00000126  00000-0  81874-4 0  4319
2 26932  67.0559 285.2160 0005340 239.1896 120.8679 14.29289878 70716
AO-49                   
1 27605U 02058A   03037.95752968 -.00003324  00000-0 -51005-3 0   505
2 27605  64.5535 232.4983 0032336 118.9306 241.5088 14.71344896  7109
SO-50                   
1 27607U 02058C   03037.94039631  .00000927  00000-0  17502-3 0   497
2 27607  64.5525 232.9066 0038167 115.7345 244.7703 14.69869662  7090



Read previous mail | Read next mail


 11.07.2025 01:48:21lGo back Go up